Location: Liscomb Game Sanctuary
(45.1633°N, 62.5575°W)
Time: 13:38:40
(UTC-03:00)

Daily predictions for brighter satellites

Satellite Brightness Start Highest point End
(mag) Time Altitude Azimuth Time Altitude Azimuth Time Altitude Azimuth
Meteor 1-21 Rocket 4.2 21:29:17 10° S 21:34:50 89° E 21:40:24 10° N
SPOT 1/Viking Rocket 4.4 21:30:33 10° SE 21:35:13 36° ENE 21:39:54 10° N
Cosmos 2219 Rocket 3.7 21:32:46 10° N 21:37:15 24° NE 21:41:43 10° ESE
USA 229 DEB 3.7 21:30:51 10° SSW 21:37:45 76° SE 21:44:46 10° NE
USA 229 3.7 21:30:58 10° SSW 21:37:51 75° SE 21:44:52 10° NE
MetOp-A 4.4 21:32:51 10° SSE 21:38:03 55° ENE 21:43:17 10° N
CZ-4 SHROUD 3.5 21:36:15 10° SSE 21:39:17 51° ENE 21:42:21 10° N
BREEZE-M DEB (TANK) 3.4 21:37:48 10° WNW 21:39:51 29° N 21:41:46 10° ENE
ARGOS 4.0 21:37:32 10° SE 21:42:26 37° ENE 21:47:21 10° N
Nimbus 7 Rocket 4.4 21:39:36 10° NNE 21:45:29 72° ESE 21:51:19 10° S
Cosmos 1515 Rocket 4.4 21:43:31 10° NNW 21:47:52 53° W 21:52:09 10° S
Cosmos 773 Rocket 4.4 21:43:01 10° NNW 21:48:10 64° WSW 21:53:20 10° S
Cosmos 1328 4.1 21:47:51 10° SSE 21:51:39 48° E 21:55:29 10° NNE
Cosmos 2151 2.9 21:52:36 10° S 21:56:46 68° E 22:00:58 10° NNE
USA 245 3.1 21:54:41 12° SE 21:56:47 31° ENE 21:58:54 10° N
NOSS 3-1 (A) 4.2 21:52:43 10° S 21:57:39 29° ESE 22:03:01 10° NE
Meteor 2-20 Rocket 4.5 21:52:41 10° S 21:58:51 85° E 22:05:02 10° N
SL-08 RB Rocket 4.4 21:56:35 10° SE 22:00:38 39° ENE 22:04:50 10° N
Cosmos 2219 3.4 21:55:34 10° S 22:01:06 51° ESE 22:06:40 10° NE
Sich 1 4.1 21:57:30 10° SSE 22:01:19 29° E 22:05:08 10° NNE
Cosmos 2315 Rocket 4.0 21:55:58 10° N 22:02:11 73° E 22:08:22 10° SSE
Cosmos 2266 Rocket 4.1 21:56:16 10° S 22:02:34 85° W 22:08:48 10° N
Cosmos 1633 Rocket 4.1 21:59:50 10° SSE 22:03:30 29° E 22:07:17 10° NNE
Cosmos 1726 2.9 22:01:52 10° N 22:05:25 37° ENE 22:08:24 13° SE
SL-23 DEB 4.2 22:00:02 10° WNW 22:05:25 63° SW 22:08:25 14° SE
Lacrosse 4 Rocket 4.2 22:06:14 10° NNE 22:06:50 10° NE 22:07:27 10° NE
Cosmos 2237 Rocket 3.6 22:02:26 10° N 22:07:15 27° NE 22:12:03 10° ESE
Cosmos 2322 4.1 22:02:05 10° NNW 22:07:45 64° WSW 22:13:22 10° SSE
Cosmos 1151 Rocket 3.7 22:05:12 10° NNW 22:09:24 53° W 22:13:36 10° S
Cosmos 2322 Rocket 4.2 22:05:38 10° NW 22:09:52 22° W 22:14:04 10° SSW
Tiangong 1 2.7 22:08:11 10° SSW 22:10:08 16° SSE 22:10:27 15° SE
SPOT 5 3.2 22:05:39 10° S 22:10:10 63° WSW 22:14:59 10° NNW
Meteor 1-27 4.4 22:04:38 10° N 22:10:19 63° ENE 22:15:32 12° SSE
Cosmos 1271 Rocket 3.8 22:10:22 10° N 22:13:48 31° ENE 22:16:25 15° SE
SL-14 R/B 3.7 22:13:07 12° SSE 22:16:35 44° E 22:20:24 10° NNE
Cosmos 2058 2.8 22:13:32 10° S 22:17:37 70° E 22:21:43 10° NNE
Cosmos 1805 Rocket 3.6 22:13:41 10° S 22:18:06 69° E 22:22:31 10° NNE
Cosmos 2360 Rocket 2.9 22:14:24 10° NW 22:19:51 50° WSW 22:25:17 10° S
ATLAS 2AS CENTAUR R/B 4.1 22:16:07 13° SE 22:20:29 21° ESE 22:26:01 10° ENE
SL-16 R/B 4.4 22:16:35 10° NW 22:20:33 20° W 22:24:30 10° SW
Envisat 4.2 22:18:20 10° SSW 22:23:05 39° W 22:27:51 10° NNW
NOAA 11 4.2 22:20:10 13° SSE 22:25:05 78° ENE 22:30:34 10° NNW
Cosmos 1437 4.1 22:27:24 10° SSW 22:30:31 41° WNW 22:33:40 10° N
Meteor 1-4 Rocket 2.8 22:29:25 10° N 22:33:09 56° ENE 22:35:27 21° SSE
Meteor 2-11 Rocket 4.5 22:27:36 10° N 22:33:48 90° NE 22:39:19 13° S
H-2A R/B 4.4 22:31:05 10° SW 22:34:34 21° W 22:38:03 10° NW
Cosmos 1707 Rocket 3.7 22:30:15 10° NNW 22:34:37 76° W 22:38:19 14° S
ATLAS 3B R/B 3.9 22:29:35 10° NNW 22:36:06 35° NE 22:42:13 10° E
Cosmos 1666 Rocket 3.5 22:36:11 11° S 22:40:27 87° E 22:44:56 10° N
Cosmos 2298 Rocket 4.0 22:35:17 10° SSW 22:40:35 73° ESE 22:45:54 10° NNE
Meteor 1-11 4.3 22:35:21 10° S 22:41:07 90° SE 22:46:54 10° N
Cosmos 1745 Rocket 4.2 22:37:43 15° SSE 22:42:44 54° E 22:48:44 10° NNE
Cosmos 1937 Rocket 3.8 22:39:55 14° S 22:44:09 48° ESE 22:49:09 10° NNE
NOSS 3-1 (C) 3.4 22:38:37 10° SSW 22:44:30 76° ESE 22:51:04 10° NE
Landsat 7 3.8 22:43:47 19° SSE 22:47:10 82° ENE 22:51:57 10° NNW
Cosmos 1626 3.3 22:45:56 22° ESE 22:47:11 27° E 22:50:25 10° NNE
IGS 5A 3.9 22:45:27 22° SE 22:47:51 50° ENE 22:51:54 10° N
Cosmos 220 Rocket 4.4 22:45:21 19° S 22:48:08 45° ESE 22:52:23 10° NNE
Cosmos 2227 Rocket 2.9 22:45:19 19° SSE 22:48:29 33° ESE 22:53:30 10° NE
Cosmos 292 Rocket 3.7 22:45:08 10° NNW 22:49:56 84° ENE 22:52:56 23° SSE
Cosmos 1300 3.8 22:50:14 10° NNW 22:53:52 41° W 22:56:54 14° SSW
Cosmos 1470 Rocket 3.8 22:51:38 24° SSE 22:53:58 48° E 22:58:07 10° NNE
Cosmos 1933 Rocket 3.9 22:52:51 24° SSE 22:55:17 49° E 22:59:36 10° NNE
Cosmos 990 Rocket 4.3 22:53:44 21° SSE 22:56:48 44° ESE 23:01:41 10° NNE
Cosmos 2333 Rocket 2.4 22:51:46 10° NNW 22:57:32 67° ENE 23:01:13 23° SE
SL-16 R/B 3.5 22:54:56 10° N 22:59:57 31° NE 23:04:00 14° ESE
NOSS 0 Rocket 3.9 22:55:06 10° NNW 23:01:18 82° ENE 23:05:18 23° SSE
H-2A R/B 2.1 22:58:29 22° SSE 23:02:06 89° ENE 23:07:35 10° NNW
Terra 1.8 23:00:09 24° SSE 23:03:02 82° ENE 23:07:49 10° NNW
Spot 4 4.0 23:00:23 25° SSE 23:03:12 66° ENE 23:08:01 10° N
COSMOS 2428 3.6 23:03:46 10° NW 23:09:03 41° WSW 23:13:00 17° S
Cosmos 1386 Rocket 4.5 23:05:43 22° SSE 23:09:42 63° E 23:15:38 10° NNE
Cosmos 1346 3.2 23:10:00 46° SE 23:10:32 55° E 23:13:31 10° NNE
Cosmos 2297 Rocket 2.8 23:13:15 26° SSE 23:15:40 38° ESE 23:20:52 10° NE
Cosmos 1455 2.1 23:12:52 10° N 23:16:41 81° E 23:18:08 37° SSE
Cosmos 2219 Rocket 2.4 23:16:08 10° NNW 23:21:41 64° WSW 23:24:46 26° S
ARGOS 4.5 23:18:17 12° SSW 23:22:41 33° W 23:27:33 10° NNW
Cosmos 1869 3.3 23:20:47 10° N 23:24:51 82° ENE 23:26:20 38° SSE
Cosmos 1898 Rocket 4.1 23:20:27 10° SW 23:25:32 55° WNW 23:30:41 10° NNE
FALCON 9 R/B 3.8 23:08:20 10° W 23:29:31 47° SSW 23:33:41 24° SE
Cosmos 1125 Rocket 4.1 23:29:46 30° SE 23:31:30 39° ESE 23:36:26 10° NE
SAR-Lupe-2 4.2 23:31:51 32° SSW 23:33:05 47° W 23:36:34 10° NNW
Cosmos 1862 Rocket 3.7 23:28:52 10° NNW 23:33:12 67° W 23:35:04 32° SSW
BREEZE-M TANK 3.8 23:15:10 10° WSW 23:33:54 73° SSE 23:38:00 10° E
BREEZE-M DEB (TANK) 4.1 23:19:53 10° W 23:34:53 65° N 23:38:49 10° E
SeaSat 1 3.0 23:32:39 25° ESE 23:35:14 50° NE 23:40:01 10° NNW
CARTOSAT-1 4.4 23:34:08 24° SSW 23:36:18 41° W 23:40:24 10° NNW
CZ-4B R/B 3.8 23:36:48 13° E 23:37:42 14° ENE 23:39:36 10° NNE
Cosmos 1980 3.9 23:33:13 10° NNW 23:38:48 65° WSW 23:41:31 31° S
DMSP B5D2-2 4.5 23:38:49 10° N 23:43:58 62° WNW 23:47:50 18° SSW
Cosmos 192 4.3 23:39:04 10° NNW 23:43:59 74° WSW 23:45:55 37° S
Lacrosse 4 Rocket 2.0 23:42:14 10° NNW 23:46:35 53° NE 23:48:18 33° ESE
NOSS 3-1 (A) 4.1 23:42:09 10° SW 23:48:03 59° NW 23:54:42 10° NE
Cosmos 2237 Rocket 2.5 23:46:06 10° NNW 23:51:40 56° WSW 23:54:11 31° S
